This is the latest recevied weather packets stored in our database for station/object SP6FIG. If no packets are shown the sender has not sent any weather packets the latest 10 day(s).
| Time | Temp. | Humidity | Pressure | Rain* | Wind** | Luminosity | Snow |
|---|---|---|---|---|---|---|---|
| 1777890029 | 24.44° C | 32% | 965.4 hPa | - | - | - | - |
| 1777889429 | 24.44° C | 32% | 965.5 hPa | - | - | - | - |
| 1777888829 | 24.44° C | 32% | 965.6 hPa | - | - | - | - |
| 1777888229 | 24.44° C | 33% | 965.7 hPa | - | - | - | - |
| 1777887629 | 24.44° C | 33% | 965.7 hPa | - | - | - | - |
| 1777887029 | 24.44° C | 33% | 965.8 hPa | - | - | - | - |
| 1777886429 | 24.44° C | 34% | 965.9 hPa | - | - | - | - |
| 1777885829 | 24.44° C | 34% | 965.9 hPa | - | - | - | - |
| 1777885229 | 24.44° C | 34% | 965.9 hPa | - | - | - | - |
| 1777884629 | 24.44° C | 34% | 965.9 hPa | - | - | - | - |
| 1777884029 | 24.44° C | 34% | 965.9 hPa | - | - | - | - |
| 1777883429 | 24.44° C | 34% | 965.8 hPa | - | - | - | - |
| 1777882829 | 23.89° C | 34% | 965.6 hPa | - | - | - | - |
| 1777882229 | 23.89° C | 34% | 965.6 hPa | - | - | - | - |
| 1777881629 | 23.89° C | 34% | 965.6 hPa | - | - | - | - |
| 1777881029 | 23.89° C | 35% | 965.6 hPa | - | - | - | - |
| 1777880429 | 23.89° C | 35% | 965.9 hPa | - | - | - | - |
| 1777879829 | 23.89° C | 37% | 965.9 hPa | - | - | - | - |
| 1777879229 | 23.33° C | 36% | 966 hPa | - | - | - | - |
| 1777878629 | 23.33° C | 37% | 965.9 hPa | - | - | - | - |
| 1777730439 | 24.44° C | 23% | 972.6 hPa | - | - | - | - |
| 1777729839 | 24.44° C | 23% | 972.6 hPa | - | - | - | - |
| 1777729239 | 25° C | 24% | 972.8 hPa | - | - | - | - |
| 1777728639 | 24.44° C | 23% | 972.9 hPa | - | - | - | - |
| 1777728039 | 23.89° C | 26% | 973.1 hPa | - | - | - | - |
* Rain since midnight (hover to see other rain measurements)
** Current wind speed in m/s (hover to see current wind gust speed)